Thursday, August 21, 2014
06:22 UTC
  |  Log In   |  Register Free
Airport Search:

Independence Municipal Airport
(KIDP)

FAA data valid effective July 24, 2014 until September 18, 2014 (unless otherwise noted).

 
 
 
 
 
 
 
 
 
 
 
 
 
 

Current Aviation Weather for Independence Municipal Airport (KIDP)

The most recent METAR observation for KIDP was updated at: 1835 UTC
METAR Summary (Translated METAR)
KIDP
281835Z AUTO 35011G14KT 10SM CLR 27/14 A3021 RMK AO2
KCFV
(10.6 nm SE from KIDP)
281752Z AUTO 34007G18KT 310V020 10SM CLR 28/15 A3022 RMK AO2 SLP227 T02780150 10283 20172 58003
TAF
No TAF information found within 50 nm of KIDP
  Airport Weather Conditions for KIDP

 Current Weather at IDP
79° F
Fair
South winds at 12.7 mph
IDP NOAA Radar

Pressure: 29.93 in
Humidity: 70%
Wind: South at 12.7 MPH (11 KT)
Dew Point: 68.0°F
Visibility: 10.00 mi


Airport Weather Forecast for KIDP

Translated METAR and TAF for KIDP
Translated METAR for KIDP (0616 UTC 21 August 2014)
found at http://aviationweather.gov/adds/metars/
 
METAR text: KIDP 210555Z AUTO 17011KT 10SM CLR 26/20 A2993 RMK AO2
Conditions at: KIDP (INDEPENDENCE , KS, US) observed 0555 UTC 21 August 2014
Temperature: 26.0°C (79°F)
Dewpoint: 20.0°C (68°F) [RH = 70%]
Pressure (altimeter): 29.93 inches Hg (1013.6 mb)
Winds: from the S (170 degrees) at 13 MPH (11 knots; 5.7 m/s)
Visibility: 10 or more miles (16+ km)
Ceiling: at least 12,000 feet AGL
Clouds: sky clear below 12,000 feet AGL
Weather: automated observation with no human augmentation;
there may or may not be significant weather present at this time
Translated TAF for KIDP

There is no translated TAF available for this airport

Find All Airport Services Find A Hotel Find A Rental Car Find A Golf Course Find A Restaurant $100 Hamburger



FBO's on the Field
FBO Company Facility Photos Services Transportation Aviation Fuel Prices: Prices include tax
Catering Weather Repair Courtesy Rental Type 100LL JetA JetA+ MOGAS 8087
 
City of Independence

This FBO has not yet been rated
FS:Phillips66
Last Updated: Jul-21
Login to update fuel prices
SS:
Contact City of IndependenceMore FBO Information
 
Add another FBO Facility Photos Catering Weather Repair Courtesy Rental Type 100LL JetA JetA+ MOGAS 8087
Services Transportation Aviation Fuel Prices: Prices include tax


GlobalAir.com Airport Resource Center model-print
model-print
model-print
model-print